Regional Weather Roundup
Issued by NWS

Home | Current Version | Previous Version | Graphics & Text | Print | Product List | Glossary On
Versions: 1 2 3 4 5 6 7 8 9 10 11 12 13 14 15 16 17 18 19 20 21 22 23 24 25 26 27 28 29 30 31 32 33 34 35 36 37 38 39 40 41 42 43 44 45 46 47 48 49 50
000
ASUS43 KLMK 200402
RWRKY
KENTUCKY REGIONAL WEATHER ROUNDUP
NATIONAL WEATHER SERVICE LOUISVILLE KY
1200 AM EDT WED AUG 20 2014

NOTE "FAIR" INDICATES FEW OR NO CLOUDS BELOW 12,000 FEET
WITH NO SIGNIFICANT WEATHER AND/OR OBSTRUCTIONS TO VISIBILITY.

KYZ001>023-026-027-061>063-070>075-200500-
WESTERN AND SOUTH CENTRAL KENTUCKY

CITY           SKY/WX    TMP DP  RH WIND       PRES   REMARKS
PADUCAH        CLEAR     78  73  84 CALM      29.85S
HENDERSON      CLEAR     73  68  83 SW3       29.84R
OWENSBORO      CLEAR     76  74  93 SW6       29.85S
HOPKINSVILLE   CLEAR     77  75  93 SW7       29.87F
BOWLING GREEN  MOCLDY    80  72  76 SW5       29.88S
GLASGOW        PTCLDY    76  72  89 CALM      29.90R
$$

KYZ024-025-028>034-038-045-046-053-200500-
NORTH CENTRAL KENTUCKY

CITY           SKY/WX    TMP DP  RH WIND       PRES   REMARKS
LOUISVILLE/SDF CLOUDY    81  70  69 S7        29.84R
LOUISVILLE/LOU MOCLDY    80  70  71 S3        29.84S
FORT KNOX      CLOUDY    75  69  79 S5        29.87R
$$

KYZ035>037-039>044-047>052-055>060-089>105-200500-
NORTHEAST KENTUCKY

CITY           SKY/WX    TMP DP  RH WIND       PRES   REMARKS
LEXINGTON      PTCLDY    76  69  79 S6        29.89S
COVINGTON      MOCLDY    76  69  79 S6        29.85F
FRANKFORT      MOCLDY    76  70  82 S5        29.87R
$$

KYZ054-064>069-076>088-106>120-200500-
SOUTHEAST KENTUCKY

CITY           SKY/WX    TMP DP  RH WIND       PRES   REMARKS
JACKSON        CLEAR     73  69  87 CALM      29.93S
LONDON         CLEAR     72  69  90 CALM      29.93F
SOMERSET       PTCLDY    72  72 100 CALM      29.92F FOG
MIDDLESBORO    CLEAR     69  68  96 CALM      29.95F
MONTICELLO     PTCLDY    71  70  97 CALM      29.93S FOG
$$




USA.gov is the U.S. government's official web portal to all federal, state and local government web resources and services.